Flag for Myanmar Weather past 2 weeks in Yangon, Myanmar

Now
84 °F

Clear.


Feels Like: 92 °F
Forecast: 81 / 101 °F
Wind: 10 mph from South

Location: Rangoon Airport


UV Index: 10 (Very high)

Visibility: 4 mi


Pressure: 29.80 "Hg

Humidity: 74%

Dew point: 75 °F

Location of YangonLocation

Historic Weather in Yangon

°F

Yangon temperature yesterday

Maximum temperature yesterday: 99 °F (at 3:00 PM)
Minimum temperature yesterday: 79 °F (at 5:00 AM)
Average temperature yesterday: 89 °F

Past Weeks' High & Low Weather Summary

 TemperatureHumidityPressure
High99 °F (Apr 2, 2:30 PM)94% (Apr 2, 7:00 AM)29.95 "Hg (Apr 2, 7:00 AM)
Low75 °F (Apr 7, 4:00 AM)31% (Apr 2, 5:00 PM)29.68 "Hg (Apr 2, 3:00 PM)
Average87 °F68%29.82 "Hg
* Reported Apr 1 8:30 PM — Apr 16 8:30 PM, Yangon, Weather by CustomWeather, © 2014

Note: Actual official high and low records may vary slightly from our data, if they occured in-between our weather recording intervals... More about our weather records

Advertising

Historic Weather Conditions — Data for Previous 24 hours

 ConditionsComfort  
Time TempWeatherWind HumidityBarometerVisibility
8:30 PM
Apr 16
86 °FClear.9 mph70%29.77 "Hg4 mi
7:30 PM88 °FPassing clouds.12 mph70%29.77 "Hg4 mi
7:00 PM88 °FPassing clouds.10 mph70%29.74 "Hg4 mi
6:30 PM91 °FScattered clouds.12 mph59%29.71 "Hg4 mi
6:00 PM91 °FScattered clouds.9 mph59%29.71 "Hg4 mi
5:30 PM95 °FClear.8 mph53%29.68 "Hg4 mi
5:00 PM95 °FScattered clouds.9 mph53%29.68 "Hg4 mi
4:30 PM97 °FPartly sunny.8 mph50%29.68 "Hg4 mi
4:00 PM99 °FPartly sunny.7 mph47%29.68 "Hg4 mi
3:30 PM99 °FPartly sunny.12 mph50%29.71 "Hg4 mi
3:00 PM99 °FPartly sunny.5 mph50%29.71 "Hg5 mi
2:30 PM97 °FPassing clouds.8 mph50%29.74 "Hg5 mi
2:00 PM97 °FPassing clouds.3 mph50%29.74 "Hg5 mi
1:30 PM97 °FScattered clouds.3 mph50%29.77 "Hg5 mi
1:00 PM97 °FScattered clouds.3 mph50%29.80 "Hg5 mi
12:30 PM95 °FPassing clouds.5 mph53%29.83 "Hg5 mi
12:00 PM95 °FPassing clouds.3 mph53%29.83 "Hg5 mi
11:30 AM93 °FPassing clouds.6 mph56%29.86 "Hg5 mi
11:00 AM93 °FPassing clouds.8 mph56%29.86 "Hg5 mi
10:00 AM88 °FScattered clouds.3 mph70%29.89 "Hg5 mi
9:30 AM86 °FScattered clouds.5 mph75%29.89 "Hg4 mi
9:00 AM86 °FScattered clouds.3 mph75%29.89 "Hg4 mi
8:30 AM82 °FScattered clouds.3 mph84%29.89 "Hg4 mi
8:00 AM82 °FScattered clouds.3 mph84%29.86 "Hg4 mi
7:30 AM81 °FScattered clouds.2 mph84%29.86 "Hg4 mi
7:00 AM81 °FPartly sunny.2 mph84%29.86 "Hg4 mi
5:30 AM79 °FFog.2 mph89%29.83 "Hg3 mi
5:00 AM79 °FPassing clouds.3 mph89%29.80 "Hg4 mi
4:30 AM79 °FPassing clouds.5 mph89%29.80 "Hg4 mi
4:00 AM79 °FPassing clouds.2 mph89%29.80 "Hg4 mi
12:30 AM82 °FPassing clouds.6 mph84%29.83 "Hg4 mi
12:00 AM84 °FPassing clouds.5 mph74%29.83 "Hg4 mi
11:30 PM
Apr 15
84 °FPassing clouds.6 mph74%29.86 "Hg4 mi
11:00 PM84 °FPassing clouds.8 mph74%29.86 "Hg4 mi
10:30 PM84 °FPassing clouds.7 mph74%29.86 "Hg4 mi
10:00 PM84 °FPassing clouds.6 mph74%29.86 "Hg4 mi
9:30 PM84 °FPassing clouds.6 mph74%29.83 "Hg4 mi
9:00 PM86 °FPassing clouds.7 mph70%29.83 "Hg4 mi
Weather by CustomWeather, © 2014

See weather overview